Location: Strathcona Wilderness Centre
(53.5370°N, 113.0082°W)
Time: 01:00:36
(UTC-07:00)

Tiangong 2 - Visible Passes

Search period start: 25 November 2017 00:00
Search period end: 05 December 2017 00:00
Orbit: 386 x 392 km, 42.8° (Epoch: 24 November)

Date Brightness Start Highest point End Pass type
(mag) Time Alt. Az. Time Alt. Az. Time Alt. Az.
30 Nov 4.0 06:49:31 10° SSW 06:50:41 12° S 06:51:51 10° SSE visible
01 Dec 3.9 07:27:13 10° SSW 07:28:39 12° S 07:30:04 10° SSE visible
02 Dec 3.8 06:29:10 10° SSW 06:30:37 12° S 06:32:03 10° SSE visible
03 Dec 4.1 05:33:19 11° SSE 05:33:19 11° SSE 05:33:47 10° SSE visible
03 Dec 3.9 07:07:29 10° SSW 07:08:32 11° S 07:09:35 10° S visible
04 Dec 3.7 06:10:04 12° SSW 06:10:29 12° S 06:11:53 10° SSE visible
